Data supplied by UK-AIR on 5/4/2008
All Data GMT hour ending 
Status: R =Ratified P=Provisional,P*=As supplied
,,Glasgow City Chambers,,,,,,,,,,,,,,,,,,,,,,,
Date,time,"Carbon monoxide",status,unit,"Nitric oxide",status,unit,"Nitrogen dioxide",status,unit,"Nitrogen oxides as nitrogen dioxide",status,unit
 
01-01-1989,01:00,,,,21,R,ugm-3,40,R,ugm-3,73,R,ugm-3
01-01-1989,02:00,,,,8,R,ugm-3,34,R,ugm-3,46,R,ugm-3
01-01-1989,03:00,,,,4,R,ugm-3,34,R,ugm-3,40,R,ugm-3
01-01-1989,04:00,,,,0,R,ugm-3,29,R,ugm-3,29,R,ugm-3
01-01-1989,05:00,,,,0,R,ugm-3,17,R,ugm-3,17,R,ugm-3
01-01-1989,06:00,,,,0,R,ugm-3,11,R,ugm-3,11,R,ugm-3
01-01-1989,07:00,,,,0,R,ugm-3,11,R,ugm-3,11,R,ugm-3
01-01-1989,08:00,,,,0,R,ugm-3,17,R,ugm-3,17,R,ugm-3
01-01-1989,09:00,,,,0,R,ugm-3,11,R,ugm-3,11,R,ugm-3
01-01-1989,10:00,,,,0,R,ugm-3,11,R,ugm-3,11,R,ugm-3
01-01-1989,11:00,,,,0,R,ugm-3,11,R,ugm-3,11,R,ugm-3
01-01-1989,12:00,,,,0,R,ugm-3,11,R,ugm-3,11,R,ugm-3
01-01-1989,13:00,,,,8,R,ugm-3,17,R,ugm-3,29,R,ugm-3
01-01-1989,14:00,,,,11,R,ugm-3,17,R,ugm-3,34,R,ugm-3
01-01-1989,15:00,,,,11,R,ugm-3,17,R,ugm-3,34,R,ugm-3
01-01-1989,16:00,,,,8,R,ugm-3,29,R,ugm-3,40,R,ugm-3
01-01-1989,17:00,,,,11,R,ugm-3,23,R,ugm-3,40,R,ugm-3
01-01-1989,18:00,,,,15,R,ugm-3,34,R,ugm-3,57,R,ugm-3
01-01-1989,19:00,,,,11,R,ugm-3,52,R,ugm-3,69,R,ugm-3
01-01-1989,20:00,,,,15,R,ugm-3,34,R,ugm-3,57,R,ugm-3
01-01-1989,21:00,,,,4,R,ugm-3,40,R,ugm-3,46,R,ugm-3
01-01-1989,22:00,,,,4,R,ugm-3,34,R,ugm-3,40,R,ugm-3
01-01-1989,23:00,,,,8,R,ugm-3,46,R,ugm-3,57,R,ugm-3
01-01-1989,24:00,,,,4,R,ugm-3,29,R,ugm-3,34,R,ugm-3
02-01-1989,01:00,,,,4,R,ugm-3,23,R,ugm-3,29,R,ugm-3
02-01-1989,02:00,,,,5,R,ugm-3,17,R,ugm-3,25,R,ugm-3
02-01-1989,03:00,,,,5,R,ugm-3,25,R,ugm-3,32,R,ugm-3
02-01-1989,04:00,,,,5,R,ugm-3,21,R,ugm-3,29,R,ugm-3
02-01-1989,05:00,,,,3,R,ugm-3,17,R,ugm-3,21,R,ugm-3
02-01-1989,06:00,,,,3,R,ugm-3,23,R,ugm-3,27,R,ugm-3
02-01-1989,07:00,,,,4,R,ugm-3,13,R,ugm-3,19,R,ugm-3
02-01-1989,08:00,,,,4,R,ugm-3,15,R,ugm-3,21,R,ugm-3
02-01-1989,09:00,,,,4,R,ugm-3,15,R,ugm-3,21,R,ugm-3
02-01-1989,10:00,,,,6,R,ugm-3,27,R,ugm-3,36,R,ugm-3
02-01-1989,11:00,,,,8,R,ugm-3,32,R,ugm-3,44,R,ugm-3
02-01-1989,12:00,,,,14,R,ugm-3,32,R,ugm-3,53,R,ugm-3
02-01-1989,13:00,,,,14,R,ugm-3,32,R,ugm-3,53,R,ugm-3
02-01-1989,14:00,,,,14,R,ugm-3,32,R,ugm-3,53,R,ugm-3
02-01-1989,15:00,,,,13,R,ugm-3,27,R,ugm-3,46,R,ugm-3
02-01-1989,16:00,,,,14,R,ugm-3,34,R,ugm-3,55,R,ugm-3
02-01-1989,17:00,,,,11,R,ugm-3,36,R,ugm-3,53,R,ugm-3
02-01-1989,18:00,,,,13,R,ugm-3,36,R,ugm-3,55,R,ugm-3
02-01-1989,19:00,,,,8,R,ugm-3,32,R,ugm-3,44,R,ugm-3
02-01-1989,20:00,,,,9,R,ugm-3,29,R,ugm-3,42,R,ugm-3
02-01-1989,21:00,,,,10,R,ugm-3,32,R,ugm-3,48,R,ugm-3
02-01-1989,22:00,,,,8,R,ugm-3,29,R,ugm-3,40,R,ugm-3
02-01-1989,23:00,,,,5,R,ugm-3,27,R,ugm-3,34,R,ugm-3
02-01-1989,24:00,,,,5,R,ugm-3,27,R,ugm-3,34,R,ugm-3
03-01-1989,01:00,,,,4,R,ugm-3,25,R,ugm-3,31,R,ugm-3
03-01-1989,02:00,,,,9,R,ugm-3,29,R,ugm-3,42,R,ugm-3
03-01-1989,03:00,,,,11,R,ugm-3,34,R,ugm-3,52,R,ugm-3
03-01-1989,04:00,,,,4,R,ugm-3,29,R,ugm-3,34,R,ugm-3
03-01-1989,05:00,,,,3,R,ugm-3,21,R,ugm-3,25,R,ugm-3
03-01-1989,06:00,,,,4,R,ugm-3,32,R,ugm-3,38,R,ugm-3
03-01-1989,07:00,,,,4,R,ugm-3,32,R,ugm-3,38,R,ugm-3
03-01-1989,08:00,,,,4,R,ugm-3,31,R,ugm-3,36,R,ugm-3
03-01-1989,09:00,,,,6,R,ugm-3,25,R,ugm-3,34,R,ugm-3
03-01-1989,10:00,,,,8,R,ugm-3,27,R,ugm-3,38,R,ugm-3
03-01-1989,11:00,,,,10,R,ugm-3,27,R,ugm-3,42,R,ugm-3
03-01-1989,12:00,,,,16,R,ugm-3,32,R,ugm-3,57,R,ugm-3
03-01-1989,13:00,,,,26,R,ugm-3,42,R,ugm-3,82,R,ugm-3
03-01-1989,14:00,,,,25,R,ugm-3,38,R,ugm-3,76,R,ugm-3
03-01-1989,15:00,,,,29,R,ugm-3,44,R,ugm-3,88,R,ugm-3
03-01-1989,16:00,,,,25,R,ugm-3,40,R,ugm-3,78,R,ugm-3
03-01-1989,17:00,,,,15,R,ugm-3,36,R,ugm-3,59,R,ugm-3
03-01-1989,18:00,,,,16,R,ugm-3,34,R,ugm-3,59,R,ugm-3
03-01-1989,19:00,,,,9,R,ugm-3,27,R,ugm-3,40,R,ugm-3
03-01-1989,20:00,,,,10,R,ugm-3,32,R,ugm-3,48,R,ugm-3
03-01-1989,21:00,,,,6,R,ugm-3,27,R,ugm-3,36,R,ugm-3
03-01-1989,22:00,,,,5,R,ugm-3,25,R,ugm-3,32,R,ugm-3
03-01-1989,23:00,,,,5,R,ugm-3,25,R,ugm-3,32,R,ugm-3
03-01-1989,24:00,,,,4,R,ugm-3,21,R,ugm-3,27,R,ugm-3
04-01-1989,01:00,,,,4,R,ugm-3,19,R,ugm-3,25,R,ugm-3
04-01-1989,02:00,,,,3,R,ugm-3,17,R,ugm-3,21,R,ugm-3
04-01-1989,03:00,,,,1,R,ugm-3,15,R,ugm-3,17,R,ugm-3
04-01-1989,04:00,,,,0,R,ugm-3,10,R,ugm-3,10,R,ugm-3
04-01-1989,05:00,,,,1,R,ugm-3,13,R,ugm-3,15,R,ugm-3
04-01-1989,06:00,,,,0,R,ugm-3,17,R,ugm-3,17,R,ugm-3
04-01-1989,07:00,,,,4,R,ugm-3,21,R,ugm-3,27,R,ugm-3
04-01-1989,08:00,,,,10,R,ugm-3,38,R,ugm-3,53,R,ugm-3
04-01-1989,09:00,,,,29,R,ugm-3,55,R,ugm-3,99,R,ugm-3
04-01-1989,10:00,,,,24,R,ugm-3,59,R,ugm-3,96,R,ugm-3
04-01-1989,11:00,,,,35,R,ugm-3,73,R,ugm-3,126,R,ugm-3
04-01-1989,12:00,,,,90,R,ugm-3,84,R,ugm-3,222,R,ugm-3
04-01-1989,13:00,,,,69,R,ugm-3,84,R,ugm-3,189,R,ugm-3
04-01-1989,14:00,,,,64,R,ugm-3,78,R,ugm-3,176,R,ugm-3
04-01-1989,15:00,,,,65,R,ugm-3,78,R,ugm-3,178,R,ugm-3
04-01-1989,16:00,,,,80,R,ugm-3,84,R,ugm-3,206,R,ugm-3
04-01-1989,17:00,,,,85,R,ugm-3,92,R,ugm-3,222,R,ugm-3
04-01-1989,18:00,,,,76,R,ugm-3,80,R,ugm-3,197,R,ugm-3
04-01-1989,19:00,,,,36,R,ugm-3,63,R,ugm-3,118,R,ugm-3
04-01-1989,20:00,,,,10,R,ugm-3,42,R,ugm-3,57,R,ugm-3
04-01-1989,21:00,,,,9,R,ugm-3,50,R,ugm-3,63,R,ugm-3
04-01-1989,22:00,,,,14,R,ugm-3,61,R,ugm-3,82,R,ugm-3
04-01-1989,23:00,,,,18,R,ugm-3,61,R,ugm-3,88,R,ugm-3
04-01-1989,24:00,,,,16,R,ugm-3,57,R,ugm-3,82,R,ugm-3
05-01-1989,01:00,,,,11,R,ugm-3,40,R,ugm-3,57,R,ugm-3
05-01-1989,02:00,,,,4,R,ugm-3,27,R,ugm-3,32,R,ugm-3
05-01-1989,03:00,,,,3,R,ugm-3,23,R,ugm-3,27,R,ugm-3
05-01-1989,04:00,,,,3,R,ugm-3,25,R,ugm-3,29,R,ugm-3
05-01-1989,05:00,,,,4,R,ugm-3,29,R,ugm-3,34,R,ugm-3
05-01-1989,06:00,,,,6,R,ugm-3,34,R,ugm-3,44,R,ugm-3
05-01-1989,07:00,,,,6,R,ugm-3,32,R,ugm-3,42,R,ugm-3
05-01-1989,08:00,,,,21,R,ugm-3,55,R,ugm-3,88,R,ugm-3
05-01-1989,09:00,,,,48,R,ugm-3,65,R,ugm-3,138,R,ugm-3
05-01-1989,10:00,,,,33,R,ugm-3,61,R,ugm-3,111,R,ugm-3
05-01-1989,11:00,,,,29,R,ugm-3,61,R,ugm-3,105,R,ugm-3
05-01-1989,12:00,,,,31,R,ugm-3,61,R,ugm-3,109,R,ugm-3
05-01-1989,13:00,,,,28,R,ugm-3,63,R,ugm-3,105,R,ugm-3
05-01-1989,14:00,,,,49,R,ugm-3,67,R,ugm-3,141,R,ugm-3
05-01-1989,15:00,,,,129,R,ugm-3,78,R,ugm-3,275,R,ugm-3
05-01-1989,16:00,,,,268,R,ugm-3,96,R,ugm-3,504,R,ugm-3
05-01-1989,17:00,,,,388,R,ugm-3,96,R,ugm-3,688,R,ugm-3
05-01-1989,18:00,,,,405,R,ugm-3,92,R,ugm-3,711,R,ugm-3
05-01-1989,19:00,,,,245,R,ugm-3,78,R,ugm-3,453,R,ugm-3
05-01-1989,20:00,,,,189,R,ugm-3,74,R,ugm-3,363,R,ugm-3
05-01-1989,21:00,,,,125,R,ugm-3,65,R,ugm-3,256,R,ugm-3
05-01-1989,22:00,,,,138,R,ugm-3,65,R,ugm-3,275,R,ugm-3
05-01-1989,23:00,,,,108,R,ugm-3,59,R,ugm-3,223,R,ugm-3
05-01-1989,24:00,,,,108,R,ugm-3,59,R,ugm-3,223,R,ugm-3
06-01-1989,01:00,,,,34,R,ugm-3,52,R,ugm-3,103,R,ugm-3
06-01-1989,02:00,,,,29,R,ugm-3,52,R,ugm-3,96,R,ugm-3
06-01-1989,03:00,,,,39,R,ugm-3,52,R,ugm-3,111,R,ugm-3
06-01-1989,04:00,,,,18,R,ugm-3,46,R,ugm-3,73,R,ugm-3
06-01-1989,05:00,,,,6,R,ugm-3,38,R,ugm-3,48,R,ugm-3
06-01-1989,06:00,,,,50,R,ugm-3,50,R,ugm-3,126,R,ugm-3
06-01-1989,07:00,,,,64,R,ugm-3,50,R,ugm-3,147,R,ugm-3
06-01-1989,08:00,,,,139,R,ugm-3,59,R,ugm-3,271,R,ugm-3
06-01-1989,09:00,,,,299,R,ugm-3,76,R,ugm-3,533,R,ugm-3
06-01-1989,10:00,,,,276,R,ugm-3,84,R,ugm-3,506,R,ugm-3
06-01-1989,11:00,,,,308,R,ugm-3,80,R,ugm-3,550,R,ugm-3
06-01-1989,12:00,,,,293,R,ugm-3,82,R,ugm-3,529,R,ugm-3
06-01-1989,13:00,,,,190,R,ugm-3,71,R,ugm-3,361,R,ugm-3
06-01-1989,14:00,,,,159,R,ugm-3,73,R,ugm-3,315,R,ugm-3
06-01-1989,15:00,,,,203,R,ugm-3,71,R,ugm-3,380,R,ugm-3
06-01-1989,16:00,,,,165,R,ugm-3,63,R,ugm-3,315,R,ugm-3
06-01-1989,17:00,,,,190,R,ugm-3,65,R,ugm-3,355,R,ugm-3
06-01-1989,18:00,,,,154,R,ugm-3,69,R,ugm-3,304,R,ugm-3
06-01-1989,19:00,,,,100,R,ugm-3,67,R,ugm-3,220,R,ugm-3
06-01-1989,20:00,,,,58,R,ugm-3,61,R,ugm-3,149,R,ugm-3
06-01-1989,21:00,,,,50,R,ugm-3,61,R,ugm-3,138,R,ugm-3
06-01-1989,22:00,,,,33,R,ugm-3,55,R,ugm-3,105,R,ugm-3
06-01-1989,23:00,,,,40,R,ugm-3,59,R,ugm-3,120,R,ugm-3
06-01-1989,24:00,,,,29,R,ugm-3,57,R,ugm-3,101,R,ugm-3
07-01-1989,01:00,,,,23,R,ugm-3,48,R,ugm-3,82,R,ugm-3
07-01-1989,02:00,,,,23,R,ugm-3,44,R,ugm-3,78,R,ugm-3
07-01-1989,03:00,,,,13,R,ugm-3,38,R,ugm-3,57,R,ugm-3
07-01-1989,04:00,,,,6,R,ugm-3,29,R,ugm-3,38,R,ugm-3
07-01-1989,05:00,,,,4,R,ugm-3,25,R,ugm-3,31,R,ugm-3
07-01-1989,06:00,,,,4,R,ugm-3,27,R,ugm-3,32,R,ugm-3
07-01-1989,07:00,,,,6,R,ugm-3,42,R,ugm-3,52,R,ugm-3
07-01-1989,08:00,,,,9,R,ugm-3,40,R,ugm-3,53,R,ugm-3
07-01-1989,09:00,,,,23,R,ugm-3,57,R,ugm-3,92,R,ugm-3
07-01-1989,10:00,,,,34,R,ugm-3,61,R,ugm-3,113,R,ugm-3
07-01-1989,11:00,,,,39,R,ugm-3,59,R,ugm-3,118,R,ugm-3
07-01-1989,12:00,,,,48,R,ugm-3,59,R,ugm-3,132,R,ugm-3
07-01-1989,13:00,,,,28,R,ugm-3,52,R,ugm-3,94,R,ugm-3
07-01-1989,14:00,,,,30,R,ugm-3,50,R,ugm-3,96,R,ugm-3
07-01-1989,15:00,,,,44,R,ugm-3,57,R,ugm-3,124,R,ugm-3
07-01-1989,16:00,,,,39,R,ugm-3,55,R,ugm-3,115,R,ugm-3
07-01-1989,17:00,,,,35,R,ugm-3,52,R,ugm-3,105,R,ugm-3
07-01-1989,18:00,,,,31,R,ugm-3,48,R,ugm-3,96,R,ugm-3
07-01-1989,19:00,,,,33,R,ugm-3,52,R,ugm-3,101,R,ugm-3
07-01-1989,20:00,,,,19,R,ugm-3,44,R,ugm-3,73,R,ugm-3
07-01-1989,21:00,,,,23,R,ugm-3,48,R,ugm-3,82,R,ugm-3
07-01-1989,22:00,,,,19,R,ugm-3,36,R,ugm-3,65,R,ugm-3
07-01-1989,23:00,,,,13,R,ugm-3,36,R,ugm-3,55,R,ugm-3
07-01-1989,24:00,,,,11,R,ugm-3,32,R,ugm-3,50,R,ugm-3
08-01-1989,01:00,,,,6,R,ugm-3,32,R,ugm-3,42,R,ugm-3
08-01-1989,02:00,,,,6,R,ugm-3,21,R,ugm-3,31,R,ugm-3
08-01-1989,03:00,,,,4,R,ugm-3,11,R,ugm-3,17,R,ugm-3
08-01-1989,04:00,,,,5,R,ugm-3,10,R,ugm-3,17,R,ugm-3
08-01-1989,05:00,,,,3,R,ugm-3,10,R,ugm-3,13,R,ugm-3
08-01-1989,06:00,,,,0,R,ugm-3,11,R,ugm-3,11,R,ugm-3
08-01-1989,07:00,,,,1,R,ugm-3,11,R,ugm-3,13,R,ugm-3
08-01-1989,08:00,,,,4,R,ugm-3,11,R,ugm-3,17,R,ugm-3
08-01-1989,09:00,,,,4,R,ugm-3,11,R,ugm-3,17,R,ugm-3
08-01-1989,10:00,,,,4,R,ugm-3,15,R,ugm-3,21,R,ugm-3
08-01-1989,11:00,,,,4,R,ugm-3,19,R,ugm-3,25,R,ugm-3
08-01-1989,12:00,,,,6,R,ugm-3,23,R,ugm-3,32,R,ugm-3
08-01-1989,13:00,,,,10,R,ugm-3,31,R,ugm-3,46,R,ugm-3
08-01-1989,14:00,,,,14,R,ugm-3,31,R,ugm-3,52,R,ugm-3
08-01-1989,15:00,,,,14,R,ugm-3,34,R,ugm-3,55,R,ugm-3
08-01-1989,16:00,,,,14,R,ugm-3,32,R,ugm-3,53,R,ugm-3
08-01-1989,17:00,,,,10,R,ugm-3,32,R,ugm-3,48,R,ugm-3
08-01-1989,18:00,,,,6,R,ugm-3,25,R,ugm-3,34,R,ugm-3
08-01-1989,19:00,,,,5,R,ugm-3,21,R,ugm-3,29,R,ugm-3
08-01-1989,20:00,,,,4,R,ugm-3,21,R,ugm-3,27,R,ugm-3
08-01-1989,21:00,,,,6,R,ugm-3,21,R,ugm-3,31,R,ugm-3
08-01-1989,22:00,,,,5,R,ugm-3,25,R,ugm-3,32,R,ugm-3
08-01-1989,23:00,,,,6,R,ugm-3,27,R,ugm-3,36,R,ugm-3
08-01-1989,24:00,,,,4,R,ugm-3,17,R,ugm-3,23,R,ugm-3
09-01-1989,01:00,,,,3,R,ugm-3,10,R,ugm-3,13,R,ugm-3
09-01-1989,02:00,,,,3,R,ugm-3,10,R,ugm-3,13,R,ugm-3
09-01-1989,03:00,,,,1,R,ugm-3,10,R,ugm-3,11,R,ugm-3
09-01-1989,04:00,,,,3,R,ugm-3,11,R,ugm-3,15,R,ugm-3
09-01-1989,05:00,,,,0,R,ugm-3,11,R,ugm-3,11,R,ugm-3
09-01-1989,06:00,,,,3,R,ugm-3,15,R,ugm-3,19,R,ugm-3
09-01-1989,07:00,,,,5,R,ugm-3,31,R,ugm-3,38,R,ugm-3
09-01-1989,08:00,,,,38,R,ugm-3,67,R,ugm-3,124,R,ugm-3
09-01-1989,09:00,,,,164,R,ugm-3,96,R,ugm-3,346,R,ugm-3
09-01-1989,10:00,,,,126,R,ugm-3,97,R,ugm-3,290,R,ugm-3
09-01-1989,11:00,,,,93,R,ugm-3,92,R,ugm-3,233,R,ugm-3
09-01-1989,12:00,,,,103,R,ugm-3,88,R,ugm-3,244,R,ugm-3
09-01-1989,13:00,,,,90,R,ugm-3,86,R,ugm-3,223,R,ugm-3
09-01-1989,14:00,,,,78,R,ugm-3,78,R,ugm-3,197,R,ugm-3
09-01-1989,15:00,,,,46,R,ugm-3,69,R,ugm-3,139,R,ugm-3
09-01-1989,16:00,,,,59,R,ugm-3,78,R,ugm-3,168,R,ugm-3
09-01-1989,17:00,,,,111,R,ugm-3,96,R,ugm-3,265,R,ugm-3
09-01-1989,18:00,,,,130,R,ugm-3,94,R,ugm-3,292,R,ugm-3
09-01-1989,19:00,,,,69,R,ugm-3,86,R,ugm-3,191,R,ugm-3
09-01-1989,20:00,,,,35,R,ugm-3,74,R,ugm-3,128,R,ugm-3
09-01-1989,21:00,,,,28,R,ugm-3,69,R,ugm-3,111,R,ugm-3
09-01-1989,22:00,,,,19,R,ugm-3,67,R,ugm-3,96,R,ugm-3
09-01-1989,23:00,,,,14,R,ugm-3,65,R,ugm-3,86,R,ugm-3
09-01-1989,24:00,,,,6,R,ugm-3,42,R,ugm-3,52,R,ugm-3
10-01-1989,01:00,,,,8,R,ugm-3,40,R,ugm-3,52,R,ugm-3
10-01-1989,02:00,,,,4,R,ugm-3,32,R,ugm-3,38,R,ugm-3
10-01-1989,03:00,,,,3,R,ugm-3,15,R,ugm-3,19,R,ugm-3
10-01-1989,04:00,,,,0,R,ugm-3,19,R,ugm-3,19,R,ugm-3
10-01-1989,05:00,,,,3,R,ugm-3,23,R,ugm-3,27,R,ugm-3
10-01-1989,06:00,,,,3,R,ugm-3,21,R,ugm-3,25,R,ugm-3
10-01-1989,07:00,,,,16,R,ugm-3,52,R,ugm-3,76,R,ugm-3
10-01-1989,08:00,,,,30,R,ugm-3,61,R,ugm-3,107,R,ugm-3
10-01-1989,09:00,,,,51,R,ugm-3,73,R,ugm-3,151,R,ugm-3
10-01-1989,10:00,,,,41,R,ugm-3,71,R,ugm-3,134,R,ugm-3
10-01-1989,11:00,,,,38,R,ugm-3,65,R,ugm-3,122,R,ugm-3
10-01-1989,12:00,,,,76,R,ugm-3,82,R,ugm-3,199,R,ugm-3
10-01-1989,13:00,,,,80,R,ugm-3,84,R,ugm-3,206,R,ugm-3
10-01-1989,14:00,,,,69,R,ugm-3,82,R,ugm-3,187,R,ugm-3
10-01-1989,15:00,,,,105,R,ugm-3,96,R,ugm-3,256,R,ugm-3
10-01-1989,16:00,,,,98,R,ugm-3,92,R,ugm-3,241,R,ugm-3
10-01-1989,17:00,,,,80,R,ugm-3,90,R,ugm-3,212,R,ugm-3
10-01-1989,18:00,,,,106,R,ugm-3,92,R,ugm-3,254,R,ugm-3
10-01-1989,19:00,,,,50,R,ugm-3,80,R,ugm-3,157,R,ugm-3
10-01-1989,20:00,,,,18,R,ugm-3,61,R,ugm-3,88,R,ugm-3
10-01-1989,21:00,,,,13,R,ugm-3,46,R,ugm-3,65,R,ugm-3
10-01-1989,22:00,,,,10,R,ugm-3,46,R,ugm-3,61,R,ugm-3
10-01-1989,23:00,,,,6,R,ugm-3,36,R,ugm-3,46,R,ugm-3
10-01-1989,24:00,,,,4,R,ugm-3,32,R,ugm-3,38,R,ugm-3
11-01-1989,01:00,,,,1,R,ugm-3,19,R,ugm-3,21,R,ugm-3
11-01-1989,02:00,,,,1,R,ugm-3,13,R,ugm-3,15,R,ugm-3
11-01-1989,03:00,,,,0,R,ugm-3,11,R,ugm-3,11,R,ugm-3
11-01-1989,04:00,,,,0,R,ugm-3,10,R,ugm-3,10,R,ugm-3
11-01-1989,05:00,,,,0,R,ugm-3,10,R,ugm-3,10,R,ugm-3
11-01-1989,06:00,,,,0,R,ugm-3,11,R,ugm-3,11,R,ugm-3
11-01-1989,07:00,,,,3,R,ugm-3,15,R,ugm-3,19,R,ugm-3
11-01-1989,08:00,,,,6,R,ugm-3,27,R,ugm-3,36,R,ugm-3
11-01-1989,09:00,,,,21,R,ugm-3,46,R,ugm-3,78,R,ugm-3
11-01-1989,10:00,,,,20,R,ugm-3,46,R,ugm-3,76,R,ugm-3
11-01-1989,11:00,,,,15,R,ugm-3,40,R,ugm-3,63,R,ugm-3
11-01-1989,12:00,,,,16,R,ugm-3,40,R,ugm-3,65,R,ugm-3
11-01-1989,13:00,,,,15,R,ugm-3,40,R,ugm-3,63,R,ugm-3
11-01-1989,14:00,,,,18,R,ugm-3,46,R,ugm-3,73,R,ugm-3
11-01-1989,15:00,,,,15,R,ugm-3,44,R,ugm-3,67,R,ugm-3
11-01-1989,16:00,,,,15,R,ugm-3,44,R,ugm-3,67,R,ugm-3
11-01-1989,17:00,,,,15,R,ugm-3,44,R,ugm-3,67,R,ugm-3
11-01-1989,18:00,,,,21,R,ugm-3,53,R,ugm-3,86,R,ugm-3
11-01-1989,19:00,,,,9,R,ugm-3,44,R,ugm-3,57,R,ugm-3
11-01-1989,20:00,,,,26,R,ugm-3,69,R,ugm-3,109,R,ugm-3
11-01-1989,21:00,,,,6,R,ugm-3,52,R,ugm-3,61,R,ugm-3
11-01-1989,22:00,,,,21,R,ugm-3,67,R,ugm-3,99,R,ugm-3
11-01-1989,23:00,,,,21,R,ugm-3,63,R,ugm-3,96,R,ugm-3
11-01-1989,24:00,,,,14,R,ugm-3,52,R,ugm-3,73,R,ugm-3
12-01-1989,01:00,,,,4,R,ugm-3,34,R,ugm-3,40,R,ugm-3
12-01-1989,02:00,,,,5,R,ugm-3,25,R,ugm-3,32,R,ugm-3
12-01-1989,03:00,,,,1,R,ugm-3,21,R,ugm-3,23,R,ugm-3
12-01-1989,04:00,,,,0,R,ugm-3,17,R,ugm-3,17,R,ugm-3
12-01-1989,05:00,,,,0,R,ugm-3,21,R,ugm-3,21,R,ugm-3
12-01-1989,06:00,,,,4,R,ugm-3,21,R,ugm-3,27,R,ugm-3
12-01-1989,07:00,,,,6,R,ugm-3,38,R,ugm-3,48,R,ugm-3
12-01-1989,08:00,,,,28,R,ugm-3,57,R,ugm-3,99,R,ugm-3
12-01-1989,09:00,,,,65,R,ugm-3,67,R,ugm-3,166,R,ugm-3
12-01-1989,10:00,,,,90,R,ugm-3,74,R,ugm-3,212,R,ugm-3
12-01-1989,11:00,,,,70,R,ugm-3,74,R,ugm-3,181,R,ugm-3
12-01-1989,12:00,,,,46,R,ugm-3,67,R,ugm-3,138,R,ugm-3
12-01-1989,13:00,,,,40,R,ugm-3,69,R,ugm-3,130,R,ugm-3
12-01-1989,14:00,,,,63,R,ugm-3,78,R,ugm-3,174,R,ugm-3
12-01-1989,15:00,,,,108,R,ugm-3,97,R,ugm-3,262,R,ugm-3
12-01-1989,16:00,,,,81,R,ugm-3,88,R,ugm-3,212,R,ugm-3
12-01-1989,17:00,,,,84,R,ugm-3,92,R,ugm-3,220,R,ugm-3
12-01-1989,18:00,,,,61,R,ugm-3,80,R,ugm-3,174,R,ugm-3
12-01-1989,19:00,,,,40,R,ugm-3,76,R,ugm-3,138,R,ugm-3
12-01-1989,20:00,,,,35,R,ugm-3,69,R,ugm-3,122,R,ugm-3
12-01-1989,21:00,,,,38,R,ugm-3,78,R,ugm-3,136,R,ugm-3
12-01-1989,22:00,,,,33,R,ugm-3,67,R,ugm-3,117,R,ugm-3
12-01-1989,23:00,,,,23,R,ugm-3,69,R,ugm-3,103,R,ugm-3
12-01-1989,24:00,,,,24,R,ugm-3,73,R,ugm-3,109,R,ugm-3
13-01-1989,01:00,,,,14,R,ugm-3,53,R,ugm-3,74,R,ugm-3
13-01-1989,02:00,,,,11,R,ugm-3,48,R,ugm-3,65,R,ugm-3
13-01-1989,03:00,,,,1,R,ugm-3,25,R,ugm-3,27,R,ugm-3
13-01-1989,04:00,,,,0,R,ugm-3,25,R,ugm-3,25,R,ugm-3
13-01-1989,05:00,,,,1,R,ugm-3,27,R,ugm-3,29,R,ugm-3
13-01-1989,06:00,,,,9,R,ugm-3,38,R,ugm-3,52,R,ugm-3
13-01-1989,07:00,,,,23,R,ugm-3,57,R,ugm-3,92,R,ugm-3
13-01-1989,08:00,,,,95,R,ugm-3,74,R,ugm-3,220,R,ugm-3
13-01-1989,09:00,,,,79,R,ugm-3,73,R,ugm-3,193,R,ugm-3
13-01-1989,10:00,,,,41,R,ugm-3,59,R,ugm-3,122,R,ugm-3
13-01-1989,11:00,,,,25,R,ugm-3,50,R,ugm-3,88,R,ugm-3
13-01-1989,12:00,,,,24,R,ugm-3,48,R,ugm-3,84,R,ugm-3
13-01-1989,13:00,,,,18,R,ugm-3,42,R,ugm-3,69,R,ugm-3
13-01-1989,14:00,,,,10,R,ugm-3,29,R,ugm-3,44,R,ugm-3
13-01-1989,15:00,,,,8,R,ugm-3,29,R,ugm-3,40,R,ugm-3
13-01-1989,16:00,,,,8,R,ugm-3,25,R,ugm-3,36,R,ugm-3
13-01-1989,17:00,,,,10,R,ugm-3,27,R,ugm-3,42,R,ugm-3
13-01-1989,18:00,,,,14,R,ugm-3,36,R,ugm-3,57,R,ugm-3
13-01-1989,19:00,,,,9,R,ugm-3,32,R,ugm-3,46,R,ugm-3
13-01-1989,20:00,,,,6,R,ugm-3,31,R,ugm-3,40,R,ugm-3
13-01-1989,21:00,,,,6,R,ugm-3,27,R,ugm-3,36,R,ugm-3
13-01-1989,22:00,,,,5,R,ugm-3,27,R,ugm-3,34,R,ugm-3
13-01-1989,23:00,,,,5,R,ugm-3,21,R,ugm-3,29,R,ugm-3
13-01-1989,24:00,,,,5,R,ugm-3,21,R,ugm-3,29,R,ugm-3
14-01-1989,01:00,,,,3,R,ugm-3,17,R,ugm-3,21,R,ugm-3
14-01-1989,02:00,,,,3,R,ugm-3,15,R,ugm-3,19,R,ugm-3
14-01-1989,03:00,,,,3,R,ugm-3,13,R,ugm-3,17,R,ugm-3
14-01-1989,04:00,,,,1,R,ugm-3,11,R,ugm-3,13,R,ugm-3
14-01-1989,05:00,,,,1,R,ugm-3,10,R,ugm-3,11,R,ugm-3
14-01-1989,06:00,,,,0,R,ugm-3,15,R,ugm-3,15,R,ugm-3
14-01-1989,07:00,,,,4,R,ugm-3,21,R,ugm-3,27,R,ugm-3
14-01-1989,08:00,,,,4,R,ugm-3,25,R,ugm-3,31,R,ugm-3
14-01-1989,09:00,,,,13,R,ugm-3,42,R,ugm-3,61,R,ugm-3
14-01-1989,10:00,,,,18,R,ugm-3,50,R,ugm-3,76,R,ugm-3
14-01-1989,11:00,,,,19,R,ugm-3,46,R,ugm-3,74,R,ugm-3
14-01-1989,12:00,,,,18,R,ugm-3,48,R,ugm-3,74,R,ugm-3
14-01-1989,13:00,,,,15,R,ugm-3,38,R,ugm-3,61,R,ugm-3
14-01-1989,14:00,,,,14,R,ugm-3,36,R,ugm-3,57,R,ugm-3
14-01-1989,15:00,,,,13,R,ugm-3,36,R,ugm-3,55,R,ugm-3
14-01-1989,16:00,,,,14,R,ugm-3,40,R,ugm-3,61,R,ugm-3
14-01-1989,17:00,,,,11,R,ugm-3,34,R,ugm-3,52,R,ugm-3
14-01-1989,18:00,,,,10,R,ugm-3,27,R,ugm-3,42,R,ugm-3
14-01-1989,19:00,,,,5,R,ugm-3,25,R,ugm-3,32,R,ugm-3
14-01-1989,20:00,,,,5,R,ugm-3,19,R,ugm-3,27,R,ugm-3
14-01-1989,21:00,,,,5,R,ugm-3,21,R,ugm-3,29,R,ugm-3
14-01-1989,22:00,,,,6,R,ugm-3,21,R,ugm-3,31,R,ugm-3
14-01-1989,23:00,,,,6,R,ugm-3,23,R,ugm-3,32,R,ugm-3
14-01-1989,24:00,,,,6,R,ugm-3,23,R,ugm-3,32,R,ugm-3
15-01-1989,01:00,,,,5,R,ugm-3,15,R,ugm-3,23,R,ugm-3
15-01-1989,02:00,,,,1,R,ugm-3,13,R,ugm-3,15,R,ugm-3
15-01-1989,03:00,,,,3,R,ugm-3,10,R,ugm-3,13,R,ugm-3
15-01-1989,04:00,,,,1,R,ugm-3,11,R,ugm-3,13,R,ugm-3
15-01-1989,05:00,,,,1,R,ugm-3,10,R,ugm-3,11,R,ugm-3
15-01-1989,06:00,,,,0,R,ugm-3,11,R,ugm-3,11,R,ugm-3
15-01-1989,07:00,,,,0,R,ugm-3,11,R,ugm-3,11,R,ugm-3
15-01-1989,08:00,,,,0,R,ugm-3,15,R,ugm-3,15,R,ugm-3
15-01-1989,09:00,,,,4,R,ugm-3,15,R,ugm-3,21,R,ugm-3
15-01-1989,10:00,,,,4,R,ugm-3,15,R,ugm-3,21,R,ugm-3
15-01-1989,11:00,,,,4,R,ugm-3,15,R,ugm-3,21,R,ugm-3
15-01-1989,12:00,,,,5,R,ugm-3,21,R,ugm-3,29,R,ugm-3
15-01-1989,13:00,,,,9,R,ugm-3,21,R,ugm-3,34,R,ugm-3
15-01-1989,14:00,,,,8,R,ugm-3,23,R,ugm-3,34,R,ugm-3
15-01-1989,15:00,,,,11,R,ugm-3,25,R,ugm-3,42,R,ugm-3
15-01-1989,16:00,,,,6,R,ugm-3,27,R,ugm-3,36,R,ugm-3
15-01-1989,17:00,,,,6,R,ugm-3,32,R,ugm-3,42,R,ugm-3
15-01-1989,18:00,,,,5,R,ugm-3,34,R,ugm-3,42,R,ugm-3
15-01-1989,19:00,,,,5,R,ugm-3,27,R,ugm-3,34,R,ugm-3
15-01-1989,20:00,,,,4,R,ugm-3,21,R,ugm-3,27,R,ugm-3
15-01-1989,21:00,,,,4,R,ugm-3,29,R,ugm-3,34,R,ugm-3
15-01-1989,22:00,,,,4,R,ugm-3,19,R,ugm-3,25,R,ugm-3
15-01-1989,23:00,,,,4,R,ugm-3,17,R,ugm-3,23,R,ugm-3
15-01-1989,24:00,,,,3,R,ugm-3,19,R,ugm-3,23,R,ugm-3
16-01-1989,01:00,,,,1,R,ugm-3,15,R,ugm-3,17,R,ugm-3
16-01-1989,02:00,,,,1,R,ugm-3,13,R,ugm-3,15,R,ugm-3
16-01-1989,03:00,,,,0,R,ugm-3,11,R,ugm-3,11,R,ugm-3
16-01-1989,04:00,,,,0,R,ugm-3,11,R,ugm-3,11,R,ugm-3
16-01-1989,05:00,,,,1,R,ugm-3,10,R,ugm-3,11,R,ugm-3
16-01-1989,06:00,,,,0,R,ugm-3,13,R,ugm-3,13,R,ugm-3
16-01-1989,07:00,,,,4,R,ugm-3,17,R,ugm-3,23,R,ugm-3
16-01-1989,08:00,,,,10,R,ugm-3,34,R,ugm-3,50,R,ugm-3
16-01-1989,09:00,,,,29,R,ugm-3,52,R,ugm-3,96,R,ugm-3
16-01-1989,10:00,,,,26,R,ugm-3,57,R,ugm-3,97,R,ugm-3
16-01-1989,11:00,,,,15,R,ugm-3,46,R,ugm-3,69,R,ugm-3
16-01-1989,12:00,,,,14,R,ugm-3,38,R,ugm-3,59,R,ugm-3
16-01-1989,13:00,,,,16,R,ugm-3,40,R,ugm-3,65,R,ugm-3
16-01-1989,14:00,,,,16,R,ugm-3,42,R,ugm-3,67,R,ugm-3
16-01-1989,15:00,,,,15,R,ugm-3,38,R,ugm-3,61,R,ugm-3
16-01-1989,16:00,,,,14,R,ugm-3,38,R,ugm-3,59,R,ugm-3
16-01-1989,17:00,,,,36,R,ugm-3,55,R,ugm-3,111,R,ugm-3
16-01-1989,18:00,,,,49,R,ugm-3,71,R,ugm-3,145,R,ugm-3
16-01-1989,19:00,,,,33,R,ugm-3,63,R,ugm-3,113,R,ugm-3
16-01-1989,20:00,,,,44,R,ugm-3,69,R,ugm-3,136,R,ugm-3
16-01-1989,21:00,,,,29,R,ugm-3,65,R,ugm-3,109,R,ugm-3
16-01-1989,22:00,,,,43,R,ugm-3,76,R,ugm-3,141,R,ugm-3
16-01-1989,23:00,,,,21,R,ugm-3,63,R,ugm-3,96,R,ugm-3
16-01-1989,24:00,,,,18,R,ugm-3,53,R,ugm-3,80,R,ugm-3
17-01-1989,01:00,,,,9,R,ugm-3,40,R,ugm-3,53,R,ugm-3
17-01-1989,02:00,,,,6,R,ugm-3,27,R,ugm-3,36,R,ugm-3
17-01-1989,03:00,,,,6,R,ugm-3,27,R,ugm-3,36,R,ugm-3
17-01-1989,04:00,,,,3,R,ugm-3,34,R,ugm-3,38,R,ugm-3
17-01-1989,05:00,,,,4,R,ugm-3,32,R,ugm-3,38,R,ugm-3
17-01-1989,06:00,,,,5,R,ugm-3,34,R,ugm-3,42,R,ugm-3
17-01-1989,07:00,,,,15,R,ugm-3,44,R,ugm-3,67,R,ugm-3
17-01-1989,08:00,,,,64,R,ugm-3,80,R,ugm-3,178,R,ugm-3
17-01-1989,09:00,,,,176,R,ugm-3,92,R,ugm-3,361,R,ugm-3
17-01-1989,10:00,,,,148,R,ugm-3,92,R,ugm-3,317,R,ugm-3
17-01-1989,11:00,,,,91,R,ugm-3,82,R,ugm-3,222,R,ugm-3
17-01-1989,12:00,,,,69,R,ugm-3,73,R,ugm-3,178,R,ugm-3
17-01-1989,13:00,,,,35,R,ugm-3,53,R,ugm-3,107,R,ugm-3
17-01-1989,14:00,,,,28,R,ugm-3,52,R,ugm-3,94,R,ugm-3
17-01-1989,15:00,,,,38,R,ugm-3,59,R,ugm-3,117,R,ugm-3
17-01-1989,16:00,,,,64,R,ugm-3,73,R,ugm-3,170,R,ugm-3
17-01-1989,17:00,,,,66,R,ugm-3,73,R,ugm-3,174,R,ugm-3
17-01-1989,18:00,,,,78,R,ugm-3,78,R,ugm-3,197,R,ugm-3
17-01-1989,19:00,,,,36,R,ugm-3,63,R,ugm-3,118,R,ugm-3
17-01-1989,20:00,,,,19,R,ugm-3,50,R,ugm-3,78,R,ugm-3
17-01-1989,21:00,,,,24,R,ugm-3,50,R,ugm-3,86,R,ugm-3
17-01-1989,22:00,,,,20,R,ugm-3,44,R,ugm-3,74,R,ugm-3
17-01-1989,23:00,,,,10,R,ugm-3,38,R,ugm-3,53,R,ugm-3
17-01-1989,24:00,,,,8,R,ugm-3,34,R,ugm-3,46,R,ugm-3
18-01-1989,01:00,,,,4,R,ugm-3,17,R,ugm-3,23,R,ugm-3
18-01-1989,02:00,,,,5,R,ugm-3,13,R,ugm-3,21,R,ugm-3
18-01-1989,03:00,,,,4,R,ugm-3,15,R,ugm-3,21,R,ugm-3
18-01-1989,04:00,,,,3,R,ugm-3,10,R,ugm-3,13,R,ugm-3
18-01-1989,05:00,,,,1,R,ugm-3,10,R,ugm-3,11,R,ugm-3
18-01-1989,06:00,,,,5,R,ugm-3,15,R,ugm-3,23,R,ugm-3
18-01-1989,07:00,,,,6,R,ugm-3,29,R,ugm-3,38,R,ugm-3
18-01-1989,08:00,,,,25,R,ugm-3,53,R,ugm-3,92,R,ugm-3
18-01-1989,09:00,,,,66,R,ugm-3,69,R,ugm-3,170,R,ugm-3
18-01-1989,10:00,,,,45,R,ugm-3,61,R,ugm-3,130,R,ugm-3
18-01-1989,11:00,,,,43,R,ugm-3,65,R,ugm-3,130,R,ugm-3
18-01-1989,12:00,,,,43,R,ugm-3,61,R,ugm-3,126,R,ugm-3
18-01-1989,13:00,,,,36,R,ugm-3,55,R,ugm-3,111,R,ugm-3
18-01-1989,14:00,,,,30,R,ugm-3,57,R,ugm-3,103,R,ugm-3
18-01-1989,15:00,,,,30,R,ugm-3,61,R,ugm-3,107,R,ugm-3
18-01-1989,16:00,,,,26,R,ugm-3,52,R,ugm-3,92,R,ugm-3
18-01-1989,17:00,,,,30,R,ugm-3,53,R,ugm-3,99,R,ugm-3
18-01-1989,18:00,,,,28,R,ugm-3,50,R,ugm-3,92,R,ugm-3
18-01-1989,19:00,,,,15,R,ugm-3,44,R,ugm-3,67,R,ugm-3
18-01-1989,20:00,,,,11,R,ugm-3,29,R,ugm-3,46,R,ugm-3
18-01-1989,21:00,,,,9,R,ugm-3,25,R,ugm-3,38,R,ugm-3
18-01-1989,22:00,,,,6,R,ugm-3,21,R,ugm-3,31,R,ugm-3
18-01-1989,23:00,,,,6,R,ugm-3,21,R,ugm-3,31,R,ugm-3
18-01-1989,24:00,,,,4,R,ugm-3,17,R,ugm-3,23,R,ugm-3
19-01-1989,01:00,,,,3,R,ugm-3,10,R,ugm-3,13,R,ugm-3
19-01-1989,02:00,,,,4,R,ugm-3,10,R,ugm-3,15,R,ugm-3
19-01-1989,03:00,,,,3,R,ugm-3,11,R,ugm-3,15,R,ugm-3
19-01-1989,04:00,,,,3,R,ugm-3,10,R,ugm-3,13,R,ugm-3
19-01-1989,05:00,,,,1,R,ugm-3,10,R,ugm-3,11,R,ugm-3
19-01-1989,06:00,,,,4,R,ugm-3,11,R,ugm-3,17,R,ugm-3
19-01-1989,07:00,,,,5,R,ugm-3,19,R,ugm-3,27,R,ugm-3
19-01-1989,08:00,,,,21,R,ugm-3,46,R,ugm-3,78,R,ugm-3
19-01-1989,09:00,,,,66,R,ugm-3,67,R,ugm-3,168,R,ugm-3
19-01-1989,10:00,,,,41,R,ugm-3,57,R,ugm-3,120,R,ugm-3
19-01-1989,11:00,,,,34,R,ugm-3,53,R,ugm-3,105,R,ugm-3
19-01-1989,12:00,,,,30,R,ugm-3,52,R,ugm-3,97,R,ugm-3
19-01-1989,13:00,,,,30,R,ugm-3,52,R,ugm-3,97,R,ugm-3
19-01-1989,14:00,,,,25,R,ugm-3,50,R,ugm-3,88,R,ugm-3
19-01-1989,15:00,,,,26,R,ugm-3,52,R,ugm-3,92,R,ugm-3